Weather History for KBBG - November, 2012

Change the Weather History Date:

Monday, November 5, 2012

  Actual Average (KHRO) Record (KHRO)
Temperature  
Mean Temperature 50 °F 53 °F  
Max Temperature 55 °F 64 °F 81 °F (1916)
Min Temperature 44 °F 42 °F 17 °F (1976)
Degree Days  
Heating Degree Days 16 12  
Month to date heating degree days 59  
Since 1 July heating degree days 324  
Cooling Degree Days 0 0  
Month to date cooling degree days 0  
Year to date cooling degree days 1412  
Moisture  
Dew Point 41 °F    
Average Humidity 78    
Maximum Humidity 93    
Minimum Humidity 58    
Precipitation  
Precipitation 0.00 in 0.15 in 1.69 in (1994)
Month to date precipitation 0.72  
Year to date precipitation 37.43  
Snow  
Snow 0.00 in 0.00 in T in (1995)
Month to date snowfall 0.0  
Since 1 July snowfall 0.1  
Since 1 September snowfall 0.1  
Snow Depth -    
Sea Level Pressure  
Sea Level Pressure 30.04 in    
Wind  
Wind Speed 6 mph (SW)    
Max Wind Speed 15 mph    
Max Gust Speed 21 mph    
Visibility 9 miles    
Events Rain , Thunderstorm    
T = Trace of Precipitation, MM = Missing Value Source: NWS Daily Summary

Daily Weather History Graph

Daily Weather History Graph

Search for Another Location

Airport or City:

Trip Planner

Search our weather history database for the weather conditions in past years. The results will help you decide how hot, cold, wet, or windy it might be!

Date:

Astronomy

Nov. 05, 2012 Rise Set
Actual Time 6:40 AM CST 5:11 PM CST
Civil Twilight 6:13 AM CST 5:38 PM CST
Nautical Twilight 5:43 AM CST 6:09 PM CST
Astronomical Twilight 5:12 AM CST 6:39 PM CST
Moon 10:49 PM CST (11/5) 12:00 PM CST (11/5)
Length of Visible Light 11h 24m
Length of Day
10h 30m
Waning Gibbous, 62% of the Moon is Illuminated
Nov 5
Waning Gibbous
Nov 6
Last Quarter
Nov 13
New
Nov 20
First Quarter
Nov 28
Full

Hourly Weather History & Observations

Time (CST) Temp. Windchill Dew Point Humidity Pressure Visibility Wind Dir Wind Speed Gust Speed Precip Events Conditions
12:15 AM 50.0 °F - 37.4 °F 62% 30.09 in 10.0 mi SSE 5.8 mph - N/A   Overcast
12:35 AM 50.0 °F - 37.4 °F 62% 30.09 in 10.0 mi SSE 6.9 mph - N/A   Overcast
12:55 AM 48.2 °F - 37.4 °F 66% 30.09 in 10.0 mi SSE 4.6 mph - N/A   Overcast
1:15 AM 48.2 °F - 37.4 °F 66% 30.09 in 10.0 mi SSE 4.6 mph - N/A   Overcast
1:35 AM 48.2 °F - 37.4 °F 66% 30.08 in 10.0 mi SSE 5.8 mph - N/A   Overcast
1:55 AM 48.2 °F - 37.4 °F 66% 30.08 in 10.0 mi SSE 4.6 mph - N/A   Overcast
2:15 AM 48.2 °F - 37.4 °F 66% 30.07 in 10.0 mi SE 5.8 mph - N/A   Overcast
2:35 AM 48.2 °F - 37.4 °F 66% 30.06 in 10.0 mi SE 5.8 mph - N/A   Overcast
2:55 AM 48.2 °F - 37.4 °F 66% 30.05 in 10.0 mi SSE 5.8 mph - N/A   Overcast
3:15 AM 48.2 °F - 37.4 °F 66% 30.04 in 10.0 mi South 4.6 mph - N/A   Overcast
3:35 AM 48.2 °F - 37.4 °F 66% 30.04 in 10.0 mi South 4.6 mph - N/A   Overcast
3:55 AM 50.0 °F - 37.4 °F 62% 30.03 in 10.0 mi South 6.9 mph - N/A   Overcast
4:15 AM 50.0 °F - 37.4 °F 62% 30.02 in 10.0 mi South 8.1 mph - N/A   Overcast
4:35 AM 51.8 °F - 37.4 °F 58% 30.02 in 10.0 mi South 3.5 mph - N/A   Overcast
4:55 AM 50.0 °F - 39.2 °F 66% 30.01 in 10.0 mi Calm Calm - N/A   Overcast
5:15 AM 48.2 °F - 39.2 °F 71% 30.01 in 10.0 mi Calm Calm - N/A   Overcast
5:35 AM 50.0 °F - 37.4 °F 62% 29.99 in 10.0 mi SE 5.8 mph - N/A   Overcast
6:53 AM 46.4 °F - 42.8 °F 87% 30.02 in 2.0 mi Calm Calm - N/A Rain , Thunderstorm Light Thunderstorms and Rain
7:18 AM 46.4 °F 45.2 °F 44.6 °F 93% 30.00 in 10.0 mi SE 3.5 mph - N/A   Mostly Cloudy
7:48 AM 44.6 °F 40.2 °F 42.8 °F 93% 30.01 in 10.0 mi ESE 8.1 mph - N/A   Overcast
8:21 AM 46.4 °F 43.5 °F 44.6 °F 93% 30.01 in 10.0 mi ESE 5.8 mph - N/A   Overcast
8:48 AM 46.4 °F 42.9 °F 44.6 °F 93% 30.01 in 10.0 mi ESE 6.9 mph - N/A   Overcast
9:48 AM 50.0 °F - 44.6 °F 82% 30.00 in 10.0 mi SSE 9.2 mph - N/A   Mostly Cloudy
10:47 AM 51.8 °F - 44.6 °F 76% 30.00 in 10.0 mi SE 5.8 mph - N/A   Mostly Cloudy
11:51 AM 53.6 °F - 46.4 °F 77% 29.98 in 10.0 mi SE 5.8 mph - N/A   Overcast
12:46 PM 55.4 °F - 48.2 °F 77% 29.97 in 10.0 mi NNW 11.5 mph - N/A   Overcast
1:48 PM 51.8 °F - 42.8 °F 71% 29.98 in 10.0 mi NW 15.0 mph 20.7 mph N/A   Overcast
2:45 PM 50.0 °F - 42.8 °F 76% 29.98 in 10.0 mi NW 11.5 mph 16.1 mph N/A   Overcast
3:49 PM 48.2 °F - 44.6 °F 87% 30.00 in 4.0 mi NW 11.5 mph 17.3 mph N/A   Overcast
4:46 PM 46.4 °F 41.5 °F 44.6 °F 93% 30.01 in 4.0 mi NW 10.4 mph 16.1 mph N/A   Overcast
5:50 PM 46.4 °F 41.9 °F 42.8 °F 87% 30.03 in 5.0 mi NW 9.2 mph - N/A   Overcast
6:57 PM 46.4 °F 40.7 °F 41.0 °F 81% 30.06 in 5.0 mi NW 12.7 mph 16.1 mph N/A   Overcast
7:45 PM 44.6 °F 39.7 °F 41.0 °F 87% 30.06 in 7.0 mi NW 9.2 mph - N/A   Overcast
8:15 PM 44.6 °F 39.2 °F 41.0 °F 87% 30.06 in 9.0 mi NW 10.4 mph - N/A   Overcast
8:35 PM 44.6 °F 40.2 °F 41.0 °F 87% 30.06 in 9.0 mi NW 8.1 mph - N/A   Overcast
8:50 PM 44.6 °F 39.7 °F 41.0 °F 87% 30.06 in 10.0 mi NW 9.2 mph - N/A   Overcast
8:55 PM 44.6 °F 39.2 °F 41.0 °F 87% 30.06 in 10.0 mi NW 10.4 mph - N/A   Overcast
9:15 PM 44.6 °F 40.2 °F 41.0 °F 87% 30.06 in 10.0 mi NW 8.1 mph - N/A   Overcast
9:35 PM 44.6 °F 40.2 °F 41.0 °F 87% 30.06 in 5.0 mi NW 8.1 mph - N/A   Overcast
9:55 PM 44.6 °F 41.4 °F 41.0 °F 87% 30.06 in 5.0 mi NW 5.8 mph - N/A   Overcast
10:15 PM 44.6 °F 40.2 °F 41.0 °F 87% 30.05 in 6.0 mi NW 8.1 mph - N/A   Overcast
10:35 PM 44.6 °F 40.2 °F 41.0 °F 87% 30.05 in 7.0 mi NW 8.1 mph - N/A   Overcast
10:55 PM 44.6 °F 41.4 °F 41.0 °F 87% 30.05 in 9.0 mi NW 5.8 mph - N/A   Overcast
11:15 PM 44.6 °F 40.2 °F 41.0 °F 87% 30.06 in 10.0 mi WNW 8.1 mph - N/A   Overcast
11:35 PM 44.6 °F 40.7 °F 41.0 °F 87% 30.06 in 9.0 mi NW 6.9 mph - N/A   Overcast
11:55 PM 44.6 °F 39.2 °F 39.2 °F 81% 30.06 in 9.0 mi NW 10.4 mph - N/A   Overcast